Tracking 18840 objects as of 18-November-2017
HD Live streaming from Space Station
objects crossing your sky now

FENGYUN 1C DEB

Track FENGYUN 1C DEB now!
10-day predictions


NORAD ID: 32211
Int'l Code: 1999-025CVH
Perigee: 829.6 km
Apogee: 1,033.2 km
Inclination: 98.6 °
Period: 103.5 minutes
Semi major axis: 7302 km
RCS: 0.0093 m2 (small)
Launch date: May 10, 1999
Source: People's Republic of China (PRC)
Launch site: Taiyaun Space Center, China (TSC)

Note: This is SATELLITE DEBRIS
aabbcc
Your satellite tracking list
Your tracking list is empty




NASA's NSSDC Master Catalog

Two Line Element Set (TLE):
1 32211U 99025CVH 17297.45085715  .00001256  00000-0  95070-3 0  9993
2 32211  98.6074   9.1163 0139418 226.2318 199.9147 13.91252428517061
Source of the keplerian elements: AFSPC